Troy, AL

10:53 AM CDT on May 23, 2017 (GMT -0500)
Troy Municipal

Weather History for KTOI - February, 2013

Change the Weather History Date:

Tuesday, February 12, 2013

  Actual Average Record
Temperature  
Mean Temperature 52 °F 49 °F  
Max Temperature 55 °F 62 °F 76 °F (2017)
Min Temperature 49 °F 37 °F 21 °F (2011)
Degree Days  
Heating Degree Days 13 16  
Month to date heating degree days 154 201  
Since 1 July heating degree days 1351 1693  
Growing Degree Days 2 (Base 50)    
Moisture  
Dew Point 50 °F    
Average Humidity 92    
Maximum Humidity 100    
Minimum Humidity 83    
Precipitation  
Precipitation 2.60 in 0.16 in 2.60 in (2013)
Month to date precipitation 7.13 1.88  
Year to date precipitation 10.27 6.43  
Snow  
Snow 0.00 in - - ()
Month to date snowfall 0.0  
Since 1 July snowfall 0.0  
Snow Depth 0.00 in    
Sea Level Pressure  
Sea Level Pressure 29.96 in    
Wind  
Wind Speed 7 mph (NE)    
Max Wind Speed 17 mph    
Max Gust Speed 21 mph    
Visibility 4 miles    
Events Fog , Rain , Thunderstorm    
T = Trace of Precipitation, MM = Missing Value Source: NWS Daily Summary

Daily Weather History Graph

Daily Weather History Graph

Search for Another Location

Airport or City:

Trip Planner

Search our weather history database for the weather conditions in past years. The results will help you decide how hot, cold, wet, or windy it might be!

Date:

Astronomy

Feb. 12, 2013 Rise Set
Actual Time 6:28 AM CST 5:28 PM CST
Civil Twilight 6:03 AM CST 5:53 PM CST
Nautical Twilight 5:34 AM CST 6:22 PM CST
Astronomical Twilight 5:06 AM CST 6:50 PM CST
Moon 7:38 AM CST (2/12) 8:13 PM CST (2/12)
Length of Visible Light 11h 49m
Length of Day
10h 59m
Waxing Crescent, 7% of the Moon is Illuminated
Feb 12
Waxing Crescent
Feb 17
First Quarter
Feb 25
Full
Mar 4
Last Quarter
Mar 11
New

Hourly Weather History & Observations

Time (CST) Temp. Dew Point Humidity Pressure Visibility Wind Dir Wind Speed Gust Speed Precip Events Conditions
12:04 AM 55.4 °F 53.6 °F 94% 30.10 in 5.0 mi NNE 4.6 mph - 0.00 in Rain Light Rain
12:21 AM 55.4 °F 53.6 °F 94% 30.09 in 6.0 mi NE 4.6 mph - 0.01 in Rain Light Rain
12:53 AM 55.0 °F 53.1 °F 93% 30.10 in 6.0 mi North 4.6 mph - 0.01 in   Overcast
1:18 AM 55.4 °F 53.6 °F 94% 30.08 in 6.0 mi ENE 4.6 mph - 0.01 in   Overcast
1:27 AM 55.4 °F 53.6 °F 94% 30.07 in 8.0 mi ENE 3.5 mph - 0.01 in   Overcast
1:53 AM 55.0 °F 53.1 °F 93% 30.08 in 10.0 mi North 8.1 mph - 0.02 in   Overcast
2:39 AM 55.4 °F 53.6 °F 94% 30.07 in 2.0 mi NNE 6.9 mph - 0.01 in Rain Light Rain
2:53 AM 55.0 °F 53.1 °F 93% 30.07 in 3.0 mi North 5.8 mph - 0.02 in Rain Light Rain
3:07 AM 55.4 °F 53.6 °F 94% 30.07 in 2.0 mi ENE 3.5 mph - 0.00 in Rain Light Rain
3:30 AM 55.4 °F 53.6 °F 94% 30.08 in 3.0 mi NNE 3.5 mph - 0.00 in Rain Light Rain
3:43 AM 53.6 °F 53.6 °F 100% 30.11 in 1.8 mi NW 5.8 mph - 0.01 in Rain Rain
3:45 AM 53.6 °F 53.6 °F 100% 30.11 in 1.2 mi NW 5.8 mph - 0.01 in Rain Rain
3:51 AM 53.6 °F 53.6 °F 100% 30.10 in 1.2 mi NNW 5.8 mph - 0.01 in Rain Rain
3:53 AM 54.0 °F 53.1 °F 97% 30.10 in 1.2 mi North 5.8 mph - 0.01 in Rain Rain
4:00 AM 53.6 °F 53.6 °F 100% 30.10 in 1.8 mi North 4.6 mph - 0.00 in Rain Rain
4:09 AM 53.6 °F 53.6 °F 100% 30.08 in 2.5 mi NNE 6.9 mph - N/A Rain Rain
4:14 AM 53.6 °F 53.6 °F 100% 30.08 in 3.0 mi NNE 6.9 mph - N/A Rain Rain
4:19 AM 53.6 °F 53.6 °F 100% 30.09 in 3.0 mi Calm Calm - N/A Rain , Thunderstorm Rain
4:25 AM 53.6 °F 53.6 °F 100% 30.09 in 1.8 mi NE 9.2 mph - N/A Rain , Thunderstorm Heavy Rain
4:27 AM 53.6 °F 51.8 °F 94% 30.09 in 1.2 mi NNE 8.1 mph - N/A Rain , Thunderstorm Heavy Rain
4:35 AM 53.6 °F 51.8 °F 94% 30.08 in 1.5 mi NE 6.9 mph - N/A Rain Heavy Rain
4:41 AM 53.6 °F 51.8 °F 94% 30.09 in 2.0 mi NNE 5.8 mph - N/A Rain Rain
4:53 AM 54.0 °F 52.0 °F 93% 30.10 in 2.5 mi NE 4.6 mph - N/A Rain Light Rain
5:09 AM 53.6 °F 51.8 °F 94% 30.08 in 5.0 mi ENE 4.6 mph - 0.00 in Rain Light Rain
5:37 AM 53.6 °F 51.8 °F 94% 30.09 in 10.0 mi NNE 6.9 mph - 0.01 in   Overcast
5:53 AM 53.1 °F 51.1 °F 93% 30.09 in 10.0 mi NNE 8.1 mph - 0.01 in   Overcast
6:00 AM 53.6 °F 51.8 °F 94% 30.09 in 10.0 mi NNE 8.1 mph - N/A   Overcast
6:35 AM 51.8 °F 50.0 °F 94% 30.09 in 10.0 mi NNE 15.0 mph 20.7 mph 0.01 in   Overcast
6:53 AM 51.1 °F 48.0 °F 89% 30.09 in 10.0 mi NE 9.2 mph - 0.02 in   Overcast
7:05 AM 51.8 °F 48.2 °F 88% 30.10 in 10.0 mi NNE 8.1 mph - N/A   Overcast
7:49 AM 50.0 °F 46.4 °F 87% 30.08 in 10.0 mi ENE 8.1 mph - 0.02 in   Overcast
7:53 AM 50.0 °F 46.9 °F 89% 30.07 in 10.0 mi NE 8.1 mph - 0.02 in   Overcast
8:14 AM 51.8 °F 48.2 °F 88% 30.06 in 10.0 mi East 8.1 mph - 0.01 in   Mostly Cloudy
8:53 AM 51.1 °F 48.0 °F 89% 30.07 in 10.0 mi ENE 9.2 mph - 1.08 in   Overcast
9:28 AM 51.8 °F 48.2 °F 88% 30.07 in 10.0 mi NE 5.8 mph - N/A   Overcast
9:38 AM 51.8 °F 48.2 °F 88% 30.06 in 10.0 mi NE 6.9 mph - N/A   Overcast
9:49 AM 53.6 °F 48.2 °F 82% 30.06 in 10.0 mi ENE 5.8 mph - N/A   Overcast
9:53 AM 53.1 °F 48.0 °F 83% 30.06 in 10.0 mi NE 9.2 mph - N/A   Overcast
10:53 AM 53.1 °F 46.9 °F 80% 30.04 in 10.0 mi East 6.9 mph - 0.00 in Rain Light Rain
11:53 AM 54.0 °F 46.9 °F 77% 30.02 in 10.0 mi East 6.9 mph - 0.00 in   Overcast
12:20 PM 55.4 °F 46.4 °F 72% 30.00 in 10.0 mi East 4.6 mph - N/A   Overcast
12:53 PM 54.0 °F 46.9 °F 77% 29.97 in 6.0 mi ENE 5.8 mph - 0.00 in Rain Light Rain
1:00 PM 53.6 °F 48.2 °F 82% 29.98 in 2.5 mi Calm Calm - 0.01 in Rain , Thunderstorm Light Thunderstorms and Rain
1:07 PM 53.6 °F 48.2 °F 82% 29.95 in 1.5 mi East 6.9 mph - 0.09 in Rain , Thunderstorm Heavy Thunderstorms and Rain
1:09 PM 53.6 °F 48.2 °F 82% 29.94 in 1.0 mi East 9.2 mph - 0.11 in Rain , Thunderstorm Heavy Thunderstorms and Rain
1:18 PM 51.8 °F 48.2 °F 88% 29.95 in 1.8 mi NE 5.8 mph - 0.12 in Rain Light Rain
1:21 PM 51.8 °F 48.2 °F 88% 29.95 in 3.0 mi NNE 5.8 mph - 0.12 in Rain Light Rain
1:44 PM 51.8 °F 48.2 °F 88% 29.93 in 2.5 mi NNE 10.4 mph - 0.14 in Rain Light Rain
1:53 PM 51.1 °F 48.9 °F 92% 29.90 in 1.8 mi ENE 9.2 mph - 0.20 in Rain Heavy Rain
1:55 PM 51.8 °F 48.2 °F 88% 29.90 in 1.2 mi ENE 9.2 mph - 0.00 in Rain Heavy Rain
2:02 PM 51.8 °F 48.2 °F 88% 29.92 in 1.8 mi NNE 6.9 mph - 0.00 in Rain , Thunderstorm Light Rain
2:10 PM 51.8 °F 48.2 °F 88% 29.89 in 1.2 mi ENE 9.2 mph - 0.05 in Rain , Thunderstorm Heavy Rain
2:19 PM 50.0 °F 48.2 °F 94% 29.90 in 1.0 mi NE 5.8 mph - 0.09 in Rain , Thunderstorm Heavy Thunderstorms and Rain
2:26 PM 50.0 °F 48.2 °F 94% 29.92 in 0.8 mi NNW 10.4 mph - 0.17 in Rain , Thunderstorm Heavy Thunderstorms and Rain
2:36 PM 50.0 °F 48.2 °F 94% 29.89 in 0.5 mi East 6.9 mph - 0.34 in Fog , Rain , Thunderstorm Heavy Thunderstorms and Rain
2:47 PM 50.0 °F 48.2 °F 94% 29.86 in 1.0 mi ENE 10.4 mph - 0.40 in Rain , Thunderstorm Rain
2:50 PM 50.0 °F 48.2 °F 94% 29.88 in 1.5 mi ENE 6.9 mph - 0.41 in Rain , Thunderstorm Light Thunderstorms and Rain
2:53 PM 50.0 °F 48.0 °F 93% 29.87 in 1.0 mi NE 9.2 mph - 0.49 in Rain , Thunderstorm Light Thunderstorms and Rain
2:56 PM 48.2 °F 48.2 °F 100% 29.87 in 0.5 mi NNE 9.2 mph - 0.08 in Fog , Rain , Thunderstorm Heavy Thunderstorms and Rain
3:05 PM 48.2 °F 48.2 °F 100% 29.86 in 1.0 mi ENE 8.1 mph - 0.10 in Rain , Thunderstorm Light Rain
3:07 PM 48.2 °F 48.2 °F 100% 29.86 in 1.8 mi ENE 8.1 mph - 0.10 in Rain , Thunderstorm Light Rain
3:09 PM 48.2 °F 48.2 °F 100% 29.86 in 3.0 mi ENE 8.1 mph - 0.10 in Rain , Thunderstorm Light Rain
3:16 PM 50.0 °F 48.2 °F 94% 29.85 in 5.0 mi East 8.1 mph - 0.11 in Rain Light Rain
3:27 PM 50.0 °F 48.2 °F 94% 29.86 in 2.5 mi NNE 8.1 mph - 0.13 in Rain Light Rain
3:34 PM 50.0 °F 48.2 °F 94% 29.86 in 5.0 mi ENE 5.8 mph - 0.13 in Rain Light Rain
3:53 PM 50.0 °F 48.0 °F 93% 29.83 in 1.0 mi East 6.9 mph - 0.24 in Rain Light Rain
3:55 PM 50.0 °F 48.2 °F 94% 29.83 in 0.5 mi NE 6.9 mph - 0.06 in Fog , Rain Heavy Rain
4:07 PM 50.0 °F 48.2 °F 94% 29.84 in 1.0 mi NE 11.5 mph - 0.15 in Rain Rain
4:09 PM 50.0 °F 48.2 °F 94% 29.84 in 1.5 mi ENE 10.4 mph - 0.16 in Rain Rain
4:12 PM 50.0 °F 48.2 °F 94% 29.83 in 2.0 mi ENE 12.7 mph - 0.18 in Rain Rain
4:14 PM 50.0 °F 48.2 °F 94% 29.83 in 2.0 mi ENE 8.1 mph 17.3 mph 0.19 in Rain , Thunderstorm Heavy Rain
4:32 PM 50.0 °F 48.2 °F 94% 29.81 in 2.5 mi ENE 5.8 mph - 0.24 in Rain , Thunderstorm Thunderstorms and Rain
4:34 PM 50.0 °F 48.2 °F 94% 29.81 in 3.0 mi NE 8.1 mph - 0.24 in Rain , Thunderstorm Light Thunderstorms and Rain
4:41 PM 50.0 °F 48.2 °F 94% 29.83 in 6.0 mi North 11.5 mph - 0.24 in Rain , Thunderstorm Light Thunderstorms and Rain
4:53 PM 50.0 °F 48.0 °F 93% 29.82 in 2.0 mi ENE 8.1 mph - 0.29 in Rain , Thunderstorm Light Thunderstorms and Rain
4:55 PM 50.0 °F 48.2 °F 94% 29.82 in 1.0 mi ENE 9.2 mph - 0.05 in Rain , Thunderstorm Heavy Thunderstorms and Rain
5:00 PM 50.0 °F 48.2 °F 94% 29.83 in 0.5 mi Variable 3.5 mph - 0.08 in Fog , Rain , Thunderstorm Heavy Thunderstorms and Rain
5:06 PM 50.0 °F 48.2 °F 94% 29.83 in 1.0 mi East 8.1 mph - 0.09 in Rain , Thunderstorm Thunderstorms and Rain
5:08 PM 50.0 °F 48.2 °F 94% 29.83 in 1.5 mi ENE 9.2 mph - 0.09 in Rain , Thunderstorm Light Thunderstorms and Rain
5:11 PM 50.0 °F 48.2 °F 94% 29.85 in 2.0 mi Calm Calm - 0.09 in Rain , Thunderstorm Light Thunderstorms and Rain
5:18 PM 50.0 °F 48.2 °F 94% 29.84 in 6.0 mi Variable 4.6 mph - 0.09 in Rain Light Rain
5:53 PM 50.0 °F 48.9 °F 96% 29.85 in 5.0 mi ENE 8.1 mph - 0.13 in Rain Light Rain
6:13 PM 50.0 °F 48.2 °F 94% 29.86 in 9.0 mi Variable 6.9 mph 16.1 mph 0.01 in Rain Light Rain
6:22 PM 50.0 °F 48.2 °F 94% 29.86 in 10.0 mi NNE 8.1 mph - 0.01 in Rain Light Rain
6:41 PM 50.0 °F 48.2 °F 94% 29.84 in 5.0 mi NE 8.1 mph - 0.02 in Rain Light Rain
6:53 PM 50.0 °F 48.0 °F 93% 29.84 in 9.0 mi NE 9.2 mph - 0.02 in Rain Light Rain
7:15 PM 50.0 °F 48.2 °F 94% 29.85 in 10.0 mi NE 5.8 mph - 0.00 in   Overcast
7:53 PM 51.1 °F 48.9 °F 92% 29.84 in 4.0 mi NE 5.8 mph - 0.00 in   Overcast
8:53 PM 51.1 °F 48.9 °F 92% 29.81 in 7.0 mi ENE 6.9 mph - N/A   Overcast
9:53 PM 51.1 °F 50.0 °F 96% 29.83 in 5.0 mi NNW 13.8 mph 17.3 mph 0.00 in   Overcast
10:33 PM 51.8 °F 50.0 °F 94% 29.82 in 6.0 mi NE 3.5 mph - 0.02 in Rain Light Rain
10:53 PM 51.1 °F 50.0 °F 96% 29.80 in 5.0 mi ENE 4.6 mph - 0.02 in Rain Light Rain
11:19 PM 51.8 °F 50.0 °F 94% 29.81 in 6.0 mi Calm Calm - N/A   Overcast
11:53 PM 51.1 °F 50.0 °F 96% 29.80 in 4.0 mi Calm Calm - N/A   Overcast